13P/Olbers (2024)

Japanese version
Home page
Updated on November 25, 2024

---------------------------------------------------------------------

* Profile

Recovery Date August 13, 2023
Magnitude 21.6 mag
Recoverer A. Hale (Las Cumbres Observatory)

* Pictures

* Orbital Elements

Epoch 2024 Oct. 17.0 TT = JDT 2460600.5
T 2024 June 30.04987 TT                                 Rudenko
q   1.1754691            (2000.0)            P               Q
n   0.01423662     Peri.   64.41662     -0.60853139     -0.37163270
a  16.8602768      Node    85.84709     +0.18556160     -0.92570082
e   0.9302817      Incl.   44.66598     +0.77152864     -0.07047780
P  69.2
>From 1918 observations 2023 Oct. 8-2024 Aug. 30, mean residual 0".5.
     Nongravitational parameters A1 = +0.68, A2 = -0.2968.

* Finding Charts

* Magnitudes Graph

        m1 = 3.5 + 5 log d + 24.0 log r          [ ,0]  (             - 2024 June 30)
        m1 = 4.0 + 5 log d + 14.0 log r(t - 20)  [0, ]  (2024 June 30 -             )

---------------------------------------------------------------------

The orbital elements are published on M.P.E.C. 2024-R10.
The charts are made with StellaNavigator Ver.10 (AstroArts).
The magnitudes graphs are made with Comet for Windows.

---------------------------------------------------------------------

Copyright(C) Seiichi Yoshida (comet@aerith.net). All rights reserved.